TimeCST,TemperatureF,Dew PointF,Humidity,Sea Level PressureIn,VisibilityMPH,Wind Direction,Wind SpeedMPH,Gust SpeedMPH,PrecipitationIn,Events,Conditions,WindDirDegrees,DateUTC
12:15 AM,23.0,23.0,100,30.16,10.0,WSW,11.5,-,N/A,,Unknown,240,2013-01-17 06:15:00
12:35 AM,24.8,24.8,100,30.18,10.0,WSW,12.7,-,N/A,,Unknown,250,2013-01-17 06:35:00
12:55 AM,26.6,24.8,93,30.17,10.0,West,11.5,-,N/A,,Unknown,260,2013-01-17 06:55:00
1:15 AM,26.6,24.8,93,30.18,10.0,West,12.7,-,N/A,,Unknown,270,2013-01-17 07:15:00
1:35 AM,26.6,26.6,100,30.18,10.0,West,13.8,-,N/A,,Unknown,280,2013-01-17 07:35:00
1:55 AM,26.6,26.6,100,30.19,10.0,WNW,11.5,-,N/A,,Unknown,290,2013-01-17 07:55:00
2:15 AM,28.4,26.6,93,30.19,10.0,WNW,10.4,-,N/A,,Unknown,290,2013-01-17 08:15:00
2:35 AM,26.6,26.6,100,30.19,10.0,West,11.5,-,N/A,,Unknown,280,2013-01-17 08:35:00
3:35 AM,26.6,26.6,100,30.21,10.0,West,9.2,-,N/A,,Unknown,270,2013-01-17 09:35:00
3:55 AM,26.6,26.6,100,30.22,10.0,West,9.2,-,N/A,,Unknown,280,2013-01-17 09:55:00
4:15 AM,26.6,26.6,100,30.23,10.0,West,11.5,-,N/A,,Unknown,280,2013-01-17 10:15:00
4:35 AM,26.6,26.6,100,30.23,10.0,West,11.5,-,N/A,,Unknown,280,2013-01-17 10:35:00
4:55 AM,26.6,26.6,100,30.23,10.0,WNW,11.5,-,N/A,,Unknown,290,2013-01-17 10:55:00
5:15 AM,26.6,26.6,100,30.23,10.0,WNW,10.4,-,N/A,,Unknown,300,2013-01-17 11:15:00
5:35 AM,26.6,26.6,100,30.24,10.0,WNW,10.4,-,N/A,,Unknown,300,2013-01-17 11:35:00
5:55 AM,28.4,28.4,100,30.24,10.0,NW,9.2,-,N/A,,Unknown,320,2013-01-17 11:55:00
6:15 AM,28.4,26.6,93,30.26,10.0,NNW,9.2,-,N/A,,Unknown,330,2013-01-17 12:15:00
6:35 AM,28.4,26.6,93,30.26,10.0,NNW,11.5,-,N/A,,Unknown,330,2013-01-17 12:35:00
6:55 AM,28.4,26.6,93,30.26,10.0,NNW,12.7,-,N/A,,Unknown,330,2013-01-17 12:55:00
7:15 AM,26.6,26.6,100,30.27,10.0,North,11.5,-,N/A,,Unknown,360,2013-01-17 13:15:00
7:35 AM,26.6,24.8,93,30.28,10.0,NNW,11.5,-,N/A,,Unknown,340,2013-01-17 13:35:00
7:55 AM,26.6,24.8,93,30.30,10.0,NNW,9.2,-,N/A,,Unknown,330,2013-01-17 13:55:00
8:15 AM,24.8,24.8,100,30.30,10.0,NNW,6.9,-,N/A,,Unknown,340,2013-01-17 14:15:00
8:35 AM,24.8,24.8,100,30.30,10.0,NNW,6.9,-,N/A,,Unknown,340,2013-01-17 14:35:00
8:55 AM,24.8,23.0,93,30.31,10.0,North,10.4,-,N/A,,Unknown,350,2013-01-17 14:55:00
9:15 AM,24.8,23.0,93,30.32,10.0,NNW,6.9,-,N/A,,Unknown,330,2013-01-17 15:15:00
9:35 AM,24.8,23.0,93,30.32,10.0,NNW,6.9,-,N/A,,Unknown,340,2013-01-17 15:35:00
9:55 AM,24.8,23.0,93,30.34,10.0,North,8.1,-,N/A,,Unknown,360,2013-01-17 15:55:00
10:15 AM,24.8,23.0,93,30.34,10.0,North,11.5,-,N/A,,Unknown,350,2013-01-17 16:15:00
10:35 AM,24.8,23.0,93,30.34,10.0,North,6.9,-,N/A,,Unknown,10,2013-01-17 16:35:00
10:55 AM,24.8,23.0,93,30.33,10.0,NNE,5.8,-,N/A,,Unknown,30,2013-01-17 16:55:00
11:15 AM,24.8,23.0,93,30.32,10.0,NE,5.8,-,N/A,,Unknown,50,2013-01-17 17:15:00
11:35 AM,24.8,23.0,93,30.30,10.0,NE,6.9,-,N/A,,Unknown,50,2013-01-17 17:35:00
11:55 AM,24.8,23.0,93,30.31,10.0,NE,6.9,-,N/A,,Unknown,40,2013-01-17 17:55:00
12:15 PM,24.8,23.0,93,30.30,10.0,ENE,4.6,-,N/A,,Unknown,60,2013-01-17 18:15:00
12:35 PM,24.8,23.0,93,30.30,10.0,ENE,4.6,-,N/A,,Unknown,60,2013-01-17 18:35:00
12:55 PM,24.8,23.0,93,30.28,10.0,ESE,8.1,-,N/A,,Unknown,110,2013-01-17 18:55:00
1:15 PM,24.8,23.0,93,30.28,10.0,ESE,8.1,-,N/A,,Unknown,120,2013-01-17 19:15:00
1:35 PM,24.8,23.0,93,30.28,10.0,ESE,8.1,-,N/A,,Unknown,120,2013-01-17 19:35:00
1:55 PM,24.8,23.0,93,30.27,10.0,East,5.8,-,N/A,,Unknown,100,2013-01-17 19:55:00
2:15 PM,24.8,23.0,93,30.26,10.0,ESE,8.1,-,N/A,,Unknown,110,2013-01-17 20:15:00
2:35 PM,24.8,23.0,93,30.24,10.0,ESE,8.1,-,N/A,,Unknown,120,2013-01-17 20:35:00
2:55 PM,24.8,23.0,93,30.22,10.0,ESE,9.2,-,N/A,,Unknown,120,2013-01-17 20:55:00
3:15 PM,24.8,23.0,93,30.22,10.0,ESE,9.2,-,N/A,,Unknown,110,2013-01-17 21:15:00
3:35 PM,24.8,23.0,93,30.21,10.0,East,10.4,-,N/A,,Unknown,100,2013-01-17 21:35:00
3:55 PM,24.8,23.0,93,30.20,10.0,ESE,11.5,-,N/A,,Unknown,120,2013-01-17 21:55:00
4:55 PM,24.8,23.0,93,30.17,10.0,SE,11.5,-,N/A,,Unknown,130,2013-01-17 22:55:00
5:35 PM,24.8,24.8,100,30.15,10.0,SE,9.2,-,N/A,,Unknown,130,2013-01-17 23:35:00
7:15 PM,26.6,26.6,100,30.09,10.0,SE,13.8,-,N/A,,Unknown,140,2013-01-18 01:15:00
7:55 PM,26.6,26.6,100,30.07,10.0,SE,9.2,-,N/A,,Unknown,130,2013-01-18 01:55:00
8:15 PM,26.6,26.6,100,30.06,10.0,SE,9.2,-,N/A,,Unknown,140,2013-01-18 02:15:00
8:55 PM,26.6,26.6,100,30.02,10.0,SSE,11.5,-,N/A,,Unknown,150,2013-01-18 02:55:00
9:15 PM,28.4,28.4,100,29.99,7.0,SSE,13.8,-,N/A,,Unknown,160,2013-01-18 03:15:00
9:35 PM,28.4,28.4,100,29.98,10.0,South,12.7,-,N/A,,Unknown,180,2013-01-18 03:35:00
9:55 PM,28.4,28.4,100,29.97,10.0,South,12.7,-,N/A,,Unknown,180,2013-01-18 03:55:00
11:15 PM,28.4,28.4,100,29.90,10.0,South,15.0,-,N/A,,Unknown,190,2013-01-18 05:15:00
11:35 PM,28.4,28.4,100,29.89,10.0,South,12.7,-,N/A,,Unknown,190,2013-01-18 05:35:00
11:55 PM,28.4,28.4,100,29.88,10.0,SSW,11.5,-,N/A,,Unknown,200,2013-01-18 05:55:00